This is the latest recevied weather packets stored in our database for station/object N4CVG. If no packets are shown the sender has not sent any weather packets the latest 10 day(s).
| Time | Temp. | Humidity | Pressure | Rain* | Wind** | Luminosity | Snow |
|---|---|---|---|---|---|---|---|
| 1777503602 | 17.78° C | 72% | 1010.2 hPa | 0 mm | - | - | - |
| 1777501201 | 17.22° C | 75% | 1010.2 hPa | 0 mm | - | - | - |
| 1777492222 | 16.67° C | 86% | 1009.3 hPa | 0 mm | - | - | - |
| 1777491623 | 17.22° C | 86% | 1009.2 hPa | 0 mm | - | - | - |
| 1777489224 | 18.33° C | 87% | 1008.6 hPa | 0 mm | - | - | - |
| 1777486223 | 18.89° C | 90% | 1007.7 hPa | 0 mm | - | - | - |
| 1777483202 | 18.89° C | 99% | 1007.5 hPa | 0 mm | - | - | - |
| 1777482602 | 17.78° C | 96% | 1007.6 hPa | 0 mm | - | - | - |
| 1777473602 | 16.67° C | 99% | 1008.5 hPa | 1.27 mm | - | - | - |
| 1777467603 | 15.56° C | 98% | 1009.8 hPa | 0 mm | - | - | - |
| 1777467001 | 15.56° C | 98% | 1009.9 hPa | 0.51 mm | - | - | - |
| 1777453223 | 15.56° C | 97% | 1009.7 hPa | 0 mm | - | - | - |
| 1777451402 | 15.56° C | 96% | 1010.6 hPa | 0 mm | - | - | - |
| 1777447803 | 16.11° C | 92% | 1009.7 hPa | 0 mm | - | - | - |
| 1777446623 | 16.11° C | 93% | 1009.9 hPa | 0 mm | - | - | - |
| 1777446024 | 16.11° C | 94% | 1009.8 hPa | 0 mm | - | - | - |
| 1777443601 | 16.11° C | 96% | 1010.9 hPa | 0 mm | - | - | - |
| 1777441202 | 16.11° C | 96% | 1011.2 hPa | 0 mm | - | - | - |
| 1777438202 | 17.22° C | 94% | 1011.2 hPa | 0.51 mm | - | - | - |
| 1777432202 | 20° C | 87% | 1011.9 hPa | 0 mm | - | - | - |
| 1777428001 | 20° C | 86% | 1013.1 hPa | 0 mm | - | - | - |
| 1777426802 | 20° C | 86% | 1012.9 hPa | 0 mm | - | - | - |
| 1777423202 | 21.11° C | 83% | 1012.8 hPa | 0 mm | - | - | - |
| 1777421403 | 21.67° C | 80% | 1011.9 hPa | 0 mm | - | - | - |
| 1777419003 | 22.22° C | 78% | 1012.2 hPa | 0 mm | - | - | - |
* Rain latest hour (hover to see other rain measurements)
** Current wind speed in m/s (hover to see current wind gust speed)